User: anonymous   Login
Location: Unspecified
(0.0000°N, 0.0000°E)
Time: 14:53:15
(UTC+00:00)
Language:

ZHOU ENLAI - Orbit

View from above orbital plane
View from above orbital plane
View from above satellite
View from above satellite

Ground track
Ground track

The orbit data is extracted from the following two-line orbital elements,

1 43156U 18008B   22280.21049953  .00014254  00000-0  73076-3 0  9995
2 43156  97.3456 334.9541 0014469 113.4285 332.6315 15.16574850260139
Epoch (UTC): 07 October 2022 05:03:07
Eccentricity: 0.0014469
inclination: 97.3456°
perigee height: 506 km
apogee height: 526 km
right ascension of ascending node: 334.9541°
argument of perigee: 113.4285°
revolutions per day: 15.16574850
mean anomaly at epoch: 332.6315°
orbit number at epoch: 26013

The dashed part of the orbit path shows where the satellite is in the earth's shadow,  

DLR